Date String (YYYY-MM-DD hh:mm:ss) UTC,Instrument flags,absolute air pressure of the measurement (hPa),sample flow rate (lpm),inlet stack bypass flow (lpm),air temperature of the measurement (°C),ambient temperature measured by the external sensor (°C),aerosol sample conditioner tube jacket temperature (°C),OPC LED temperature (°C),internal box temperature (°C),relative humidity of the measurement (%),span deviation,mass concentration of particles derived from Lorenz-Mie calculation of OPC scattering (μg/m³),mass concentration of particles derived from Lorenz-Mie calculation of OPC scattering (μg/m³),mass concentration of particles derived from Lorenz-Mie calculation of OPC scattering (μg/m³)
DateTimeUTC,F1_M11,P_M11,Q1_M11,Q2_M11,T1_M11,T2_M11,T3_M11,T4_M11,T5_M11,U1_M11,ZSPAN_M11,X0_M11,X2_M11,X1_M11
2023-07-19 14:00:00,SystemResetWarning,0835.1,4.99,000.00,029.2,026.5,000.0,037.6,030.7,24.3,0000.0,0008.96,0003.87,0003.31
2023-07-19 14:01:00,SystemResetWarning,0834.8,5.00,000.00,029.2,026.8,000.0,037.7,030.7,24.3,0000.0,0009.22,0003.89,0003.31
2023-07-19 14:02:00,SystemResetWarning,0834.6,5.01,000.00,029.2,027.1,000.0,037.7,030.8,24.2,0000.0,0009.27,0003.87,0003.31
2023-07-19 14:03:00,SystemResetWarning,0834.8,5.00,000.00,029.2,027.4,000.0,037.7,030.9,24.1,0000.0,0009.24,0003.86,0003.30
2023-07-19 14:04:00,SystemResetWarning,0834.9,4.99,000.00,029.3,027.7,000.0,037.7,030.9,24.0,0000.0,0009.65,0003.84,0003.29
2023-07-19 14:05:00,SystemResetWarning,0835.0,4.99,000.00,029.3,027.9,000.0,037.7,031.0,24.1,0000.0,0009.53,0003.87,0003.30
2023-07-19 14:06:00,SystemResetWarning,0835.3,5.01,000.00,029.3,028.0,000.0,037.7,031.0,24.9,0000.0,0008.66,0003.85,0003.29
2023-07-19 14:07:00,SystemResetWarning,0835.3,5.01,000.00,029.4,028.1,000.0,037.8,031.1,23.9,0000.0,0008.43,0003.85,0003.29
2023-07-19 14:08:00,SystemResetWarning,0835.3,4.98,000.00,029.4,026.7,000.0,037.7,030.9,23.5,0000.0,0008.71,0003.82,0003.28
2023-07-19 14:09:00,SystemResetWarning,0834.7,5.01,000.00,029.3,025.1,000.0,037.5,030.6,23.8,0000.0,0009.01,0003.81,0003.28
2023-07-19 14:10:00,SystemResetWarning,0834.6,5.02,000.00,029.2,024.8,000.0,037.5,030.5,23.7,0000.0,0009.40,0003.82,0003.27
2023-07-19 14:11:00,SystemResetWarning,0834.8,4.99,000.00,029.1,025.2,000.0,037.5,030.3,24.0,0000.0,0009.30,0003.81,0003.28
2023-07-19 14:12:00,SystemResetWarning,0834.9,5.00,000.00,029.1,025.6,000.0,037.5,030.4,24.0,0000.0,0009.46,0003.78,0003.27
2023-07-19 14:13:00,SystemResetWarning,0835.1,5.00,000.00,029.0,026.1,000.0,037.5,030.4,23.8,0000.0,0009.55,0003.78,0003.27
2023-07-19 14:14:00,SystemResetWarning,0834.7,5.01,000.00,029.0,026.5,000.0,037.5,030.5,24.2,0000.0,0010.24,0003.83,0003.27
2023-07-19 14:15:00,SystemResetWarning,0834.7,5.00,000.00,029.1,026.8,000.0,037.6,030.6,24.6,0000.0,0010.32,0003.86,0003.27
2023-07-19 14:16:00,SystemResetWarning,0834.7,5.00,000.00,029.1,027.1,000.0,037.6,030.7,23.8,0000.0,0010.47,0003.86,0003.26
2023-07-19 14:17:00,SystemResetWarning,0834.8,5.00,000.00,029.1,027.4,000.0,037.6,030.7,25.3,0000.0,0010.37,0003.82,0003.26
2023-07-19 14:18:00,SystemResetWarning,0835.0,5.00,000.00,029.1,027.6,000.0,037.6,030.8,25.4,0000.0,0010.62,0003.79,0003.26
2023-07-19 14:19:00,SystemResetWarning,0834.8,5.00,000.00,029.2,027.8,000.0,037.6,030.8,25.2,0000.0,0010.73,0003.81,0003.26
2023-07-19 14:20:00,SystemResetWarning,0834.7,5.00,000.00,029.2,027.9,000.0,037.6,030.9,25.0,0000.0,0010.29,0003.79,0003.25
2023-07-19 14:21:00,SystemResetWarning,0834.7,5.00,000.00,029.2,028.1,000.0,037.6,030.9,24.5,0000.0,0009.54,0003.77,0003.25
2023-07-19 14:22:00,SystemResetWarning,0834.8,5.01,000.00,029.3,028.2,000.0,037.7,031.0,23.5,0000.0,0009.47,0003.74,0003.24
2023-07-19 14:23:00,SystemResetWarning,0835.2,4.98,000.00,029.3,027.6,000.0,037.6,031.0,25.1,0000.0,0009.24,0003.74,0003.24
2023-07-19 14:24:00,SystemResetWarning,0835.3,5.01,000.00,029.3,026.1,000.0,037.5,030.7,24.8,0000.0,0009.33,0003.75,0003.24
2023-07-19 14:25:00,SystemResetWarning,0835.4,5.01,000.00,029.2,025.8,000.0,037.5,030.6,24.8,0000.0,0009.20,0003.74,0003.25
2023-07-19 14:26:00,SystemResetWarning,0835.1,5.00,000.00,029.2,026.0,000.0,037.5,030.5,25.1,0000.0,0008.68,0003.74,0003.26
2023-07-19 14:27:00,SystemResetWarning,0834.9,5.00,000.00,029.1,026.4,000.0,037.5,030.6,26.1,0000.0,0008.81,0003.72,0003.27
2023-07-19 14:28:00,SystemResetWarning,0834.9,5.00,000.00,029.1,026.7,000.0,037.6,030.6,27.6,0000.0,0009.20,0003.75,0003.28
2023-07-19 14:29:00,SystemResetWarning,0835.0,5.01,000.00,029.1,027.0,000.0,037.6,030.7,28.1,0000.0,0009.01,0003.77,0003.30
2023-07-19 14:30:00,SystemResetWarning,0835.0,4.99,000.00,029.2,027.3,000.0,037.6,030.8,28.1,0000.0,0008.38,0003.77,0003.31
2023-07-19 14:31:00,SystemResetWarning,0835.0,4.99,000.00,029.2,027.5,000.0,037.6,030.8,28.3,0000.0,0008.38,0003.81,0003.33
2023-07-19 14:32:00,SystemResetWarning,0835.1,5.01,000.00,029.2,027.7,000.0,037.6,030.9,29.4,0000.0,0008.42,0003.84,0003.34
2023-07-19 14:33:00,SystemResetWarning,0835.2,5.01,000.00,029.3,027.9,000.0,037.7,030.9,29.2,0000.0,0008.58,0003.90,0003.36
2023-07-19 14:34:00,SystemResetWarning,0835.1,5.00,000.00,029.3,028.1,000.0,037.7,031.0,28.7,0000.0,0008.65,0003.91,0003.38
2023-07-19 14:35:00,SystemResetWarning,0835.1,5.00,000.00,029.3,028.2,000.0,037.7,031.1,27.7,0000.0,0008.26,0003.90,0003.40
2023-07-19 14:36:00,SystemResetWarning,0835.1,4.98,000.00,029.4,027.3,000.0,037.6,031.0,28.1,0000.0,0007.93,0003.91,0003.41
2023-07-19 14:37:00,SystemResetWarning,0835.2,5.00,000.00,029.3,026.0,000.0,037.5,030.8,28.6,0000.0,0007.84,0003.92,0003.41
2023-07-19 14:38:00,SystemResetWarning,0835.2,5.02,000.00,029.3,025.9,000.0,037.5,030.7,28.9,0000.0,0007.56,0003.93,0003.42
2023-07-19 14:39:00,SystemResetWarning,0835.1,4.98,000.00,029.2,026.1,000.0,037.5,030.6,26.3,0000.0,0007.70,0003.94,0003.43
2023-07-19 14:40:00,SystemResetWarning,0835.2,5.00,000.00,029.2,026.5,000.0,037.6,030.6,25.2,0000.0,0007.89,0003.96,0003.43
2023-07-19 14:41:00,SystemResetWarning,0835.1,5.01,000.00,029.2,026.8,000.0,037.6,030.7,25.4,0000.0,0008.99,0003.98,0003.42
2023-07-19 14:42:00,SystemResetWarning,0835.1,5.01,000.00,029.2,027.1,000.0,037.6,030.8,25.5,0000.0,0009.97,0004.00,0003.42
2023-07-19 14:43:00,SystemResetWarning,0835.1,4.99,000.00,029.2,027.4,000.0,037.7,030.8,25.5,0000.0,0010.10,0003.99,0003.43
2023-07-19 14:44:00,SystemResetWarning,0835.1,5.00,000.00,029.3,027.6,000.0,037.7,030.9,25.1,0000.0,0010.03,0003.96,0003.43
2023-07-19 14:45:00,SystemResetWarning,0835.2,5.00,000.00,029.3,027.8,000.0,037.7,031.0,25.8,0000.0,0009.97,0003.96,0003.43
2023-07-19 14:46:00,SystemResetWarning,0835.2,4.99,000.00,029.3,028.0,000.0,037.7,031.0,27.1,0000.0,0010.01,0004.02,0003.43
2023-07-19 14:47:00,SystemResetWarning,0835.3,5.00,000.00,029.4,028.2,000.0,037.7,031.1,28.4,0000.0,0010.17,0004.05,0003.44
2023-07-19 14:48:00,SystemResetWarning,0835.2,5.00,000.00,029.4,027.7,000.0,037.7,031.1,28.6,0000.0,0010.28,0004.09,0003.45
2023-07-19 14:49:00,SystemResetWarning,0835.2,5.00,000.00,029.4,025.9,000.0,037.6,030.8,29.7,0000.0,0010.58,0004.10,0003.46
2023-07-19 14:50:00,SystemResetWarning,0835.2,5.00,000.00,029.3,024.8,000.0,037.5,030.6,29.4,0000.0,0010.65,0004.15,0003.46
2023-07-19 14:51:00,SystemResetWarning,0835.2,5.02,000.00,029.2,024.9,000.0,037.4,030.4,27.8,0000.0,0011.70,0004.15,0003.47
2023-07-19 14:52:00,SystemResetWarning,0835.2,5.00,000.00,029.1,025.3,000.0,037.5,030.3,29.4,0000.0,0010.89,0004.14,0003.48
2023-07-19 14:53:00,SystemResetWarning,0835.2,5.00,000.00,029.0,025.7,000.0,037.5,030.4,31.2,0000.0,0009.86,0004.14,0003.48
2023-07-19 14:54:00,SystemResetWarning,0835.3,5.00,000.00,029.0,026.2,000.0,037.5,030.5,32.9,0000.0,0009.78,0004.13,0003.48
2023-07-19 14:55:00,SystemResetWarning,0835.3,5.00,000.00,029.0,026.6,000.0,037.5,030.6,32.2,0000.0,0009.90,0004.16,0003.49
2023-07-19 14:56:00,SystemResetWarning,0835.3,5.00,000.00,029.1,027.0,000.0,037.5,030.7,30.7,0000.0,0009.80,0004.14,0003.49
2023-07-19 14:57:00,SystemResetWarning,0835.3,5.00,000.00,029.1,027.2,000.0,037.6,030.7,28.7,0000.0,0010.03,0004.12,0003.48
2023-07-19 14:58:00,SystemResetWarning,0835.3,4.99,000.00,029.1,027.5,000.0,037.6,030.8,28.1,0000.0,0010.70,0004.12,0003.49
2023-07-19 14:59:00,SystemResetWarning,0835.3,4.99,000.00,029.1,027.7,000.0,037.6,030.8,27.7,0000.0,0011.53,0004.11,0003.50
